Location: Regensburg
(49.0167°N, 12.1000°E)
Time: 09:33:51
(UTC+01:00)

N. Korean satellite - Visible Passes

Search period start: 21 January 2021 00:00
Search period end: 31 January 2021 00:00
Orbit: 453 x 502 km, 97.2° (Epoch: 20 January)

Date Brightness Start Highest point End Pass type
(mag) Time Alt. Az. Time Alt. Az. Time Alt. Az.
21 Jan 6.3 05:57:44 10° N 06:01:15 72° WNW 06:04:41 10° SSW visible
22 Jan 7.2 05:31:13 10° NNE 05:34:40 52° E 05:38:01 10° S visible
22 Jan 8.3 07:05:46 10° NNW 07:07:34 14° WNW 07:09:21 10° W visible
22 Jan 9.7 17:43:57 10° SW 17:46:36 19° W 17:49:15 10° NW visible
23 Jan 8.7 05:05:01 10° NE 05:07:57 25° E 05:10:52 10° SSE visible
23 Jan 7.5 06:38:20 10° NNW 06:41:13 24° WNW 06:44:04 10° WSW visible
24 Jan 9.7 04:39:26 10° ENE 04:41:09 13° E 04:42:51 10° ESE visible
24 Jan 6.6 06:11:24 10° N 06:14:46 48° WNW 06:18:05 10° SSW visible
25 Jan 6.5 05:44:44 10° NNE 05:48:14 79° ESE 05:51:39 10° S visible
25 Jan 9.9 17:58:26 10° WSW 18:00:17 13° W 18:02:08 10° WNW visible
26 Jan 8.0 05:18:20 10° NNE 05:21:34 36° E 05:24:45 10° SSE visible
26 Jan 7.9 06:52:15 10° NNW 06:54:39 18° WNW 06:57:02 10° WSW visible
26 Jan 9.3 17:30:27 10° SSW 17:33:30 25° W 17:36:33 10° NW visible
27 Jan 9.3 04:52:20 10° NE 04:54:49 18° E 04:57:16 10° SE visible
27 Jan 7.1 06:25:06 10° N 06:28:15 33° WNW 06:31:21 10° SW visible
28 Jan 6.3 05:58:17 10° N 06:01:45 70° WNW 06:05:08 10° SSW visible
29 Jan 7.2 05:31:44 10° NNE 05:35:08 53° E 05:38:28 10° S visible
29 Jan 8.3 07:06:22 10° NNW 07:08:02 13° WNW 07:09:42 10° W visible
29 Jan 9.7 17:44:34 10° SW 17:47:07 18° W 17:49:39 10° NW visible
30 Jan 8.7 05:05:29 10° NE 05:08:25 25° E 05:11:18 10° SSE visible
30 Jan 7.6 06:38:51 10° NNW 06:41:40 24° WNW 06:44:27 10° WSW visible
